Regional Weather Roundup
Issued by NWS

Home | Current Version | Previous Version | Graphics & Text | Print | Product List | Glossary On
Versions: 1 2 3 4 5 6 7 8 9 10 11 12 13 14 15 16 17 18 19 20 21 22 23 24 25 26 27 28 29 30 31 32 33 34 35 36 37 38 39 40 41 42 43 44 45 46 47 48 49 50
000
ASUS43 KMKX 030000
RWRWI

WISCONSIN REGIONAL WEATHER ROUNDUP
NATIONAL WEATHER SERVICE MILWAUKEE/SULLIVAN WI
700 PM CDT THU JUL 02 2015

NOTE: "FAIR" INDICATES FEW OR NO CLOUDS BELOW 12,000 FEET WITH NO
SIGNIFICANT WEATHER AND/OR OBSTRUCTIONS TO VISIBILITY.

WIZ001-002-006>008-014>016-023>028-030100-
NORTHWEST WISCONSIN

CITY           SKY/WX    TMP DP  RH WIND       PRES   REMARKS
SUPERIOR ARPT  SUNNY     76  59  55 SW9       29.94S
ASHLAND        SUNNY     74  59  59 SW5       29.96S
6HR MIN TEMP:  74; 6HR MAX TEMP:  77;

HAYWARD        SUNNY     73  50  44 SW6       29.99S
6HR MIN TEMP:  72; 6HR MAX TEMP:  76;

SIREN          SUNNY     75  50  42 SW7       29.98F
CUMBERLAND     SUNNY     72  50  46 S6        30.00S
RICE LAKE      SUNNY     73  52  46 S3        30.01S
CHETEK         SUNNY     73  55  52 CALM      30.00S
LADYSMITH      SUNNY     73  54  50 SW7       30.02S
EAU CLAIRE     NOT AVBL
MENOMONIE      SUNNY     74  53  48 SE3       29.99F
NEW RICHMOND   SUNNY     73  54  52 SW6       29.99F
OSCEOLA        SUNNY     75  52  44 S5        30.01S
$$

WIZ003>005-009-010-017-018-030100-
NORTH CENTRAL WISCONSIN

CITY           SKY/WX    TMP DP  RH WIND       PRES   REMARKS
MANITOWISH WTR MOSUNNY   72  54  52 SW6       29.99S
ARBOR VITAE    SUNNY     72  52  50 SW5       30.00S
WOODRUFF       SUNNY     72  52  50 SW5       30.00S
RHINELANDER    SUNNY     73  51  46 SW8       30.01S
6HR MIN TEMP:  71; 6HR MAX TEMP:  77;

EAGLE RIVER    SUNNY     72  50  46 W7        29.99F
LAND O LAKES   SUNNY     73  52  47 SW5       30.01S
PHILLIPS       SUNNY     72  53  50 SW6       29.99F
TOMAHAWK       SUNNY     72  52  50 CALM      30.01F
MEDFORD        SUNNY     71  52  50 SW7       30.02S
MERRILL        SUNNY     73  51  47 SE3       30.01S
$$

WIZ029-030-035-036-043>047-030100-
CENTRAL WISCONSIN

CITY           SKY/WX    TMP DP  RH WIND       PRES   REMARKS
WAUSAU         SUNNY     73  49  42 S7        30.00R
6HR MIN TEMP:  72; 6HR MAX TEMP:  76;

MOSINEE        SUNNY     70  52  52 S7        30.02S
MARSHFIELD     SUNNY     72  49  44 S3        30.01S
6HR MIN TEMP:  70; 6HR MAX TEMP:  74;

STEVENS POINT  SUNNY     70  49  47 SE5       30.02R
WAUPACA        SUNNY     74  48  40 SE7       30.01S
WAUTOMA        NOT AVBL
WISC RAPIDS    SUNNY     72  47  40 S6        30.02S
6HR MIN TEMP:  70; 6HR MAX TEMP:  75;

CAMP DOUGLAS   SUNNY     70  53  55 E6        29.98F
6HR MIN TEMP:  70; 6HR MAX TEMP:  73;

$$

WIZ011>013-019>022-031-037>040-048>050-030100-
NORTHEAST WISCONSIN

CITY           SKY/WX    TMP DP  RH WIND       PRES   REMARKS
ANTIGO         SUNNY     69  52  55 S6        30.03S
SHAWANO        SUNNY     73  46  37 SE6       30.01S
OCONTO         SUNNY     70  49  48 CALM      30.01S
STURGEON BAY   SUNNY     66  45  45 CALM      30.04S
6HR MIN TEMP:  66; 6HR MAX TEMP:  70;

GREEN BAY      SUNNY     71  46  40 S5        30.02R
6HR MIN TEMP:  71; 6HR MAX TEMP:  74;

MANITOWOC      NOT AVBL
APPLETON       SUNNY     70  43  37 SE8       30.02S
CLINTONVILLE   SUNNY     72  45  37 S6        30.01S
OSHKOSH        SUNNY     71  44  37 E5        30.01S
6HR MIN TEMP:  68; 6HR MAX TEMP:  73;

$$

WIZ032>034-041-042-053>061-030100-
SOUTHWEST WISCONSIN

CITY           SKY/WX    TMP DP  RH WIND       PRES   REMARKS
LA CROSSE      SUNNY     74  53  48 SE7       29.97F
6HR MIN TEMP:  72; 6HR MAX TEMP:  77;

SPARTA         SUNNY     73  47  38 SE7       29.99F
VIROQUA        SUNNY     71  52  52 E5        30.00F
BOSCOBEL       MOSUNNY   71  52  50 SE5       29.99S
6HR MIN TEMP:  71; 6HR MAX TEMP:  76;

PRAIRIE DU CHI PTSUNNY   71  51  49 CALM      29.98S
PLATTEVILLE    PTSUNNY   69  49  47 E6        29.99S
$$

WIZ056-057-062-063-064-067-068-030100-
SOUTH CENTRAL WISCONSIN

CITY           SKY/WX    TMP DP  RH WIND       PRES   REMARKS
REEDSBURG      SUNNY     71  51  50 E5        29.99F
BARABOO/DELLS  SUNNY     70  49  46 E5        30.00F
LONE ROCK      NOT AVBL
MINERAL POINT  MOSUNNY   70  46  43 E6        29.99F
MADISON        MOSUNNY   69  49  48 E7        29.98F
6HR MIN TEMP:  68; 6HR MAX TEMP:  72;

MIDDLETON      SUNNY     71  47  42 NE5       30.00F
WATERTOWN      SUNNY     68  44  40 E6        30.00S
MONROE         MOSUNNY   66  48  52 NE10      29.98F
JANESVILLE     SUNNY     70  46  43 E8        29.97F
$$

WIZ051-052-058>065-066-070>072-030100-
SOUTHEAST WISCONSIN

CITY           SKY/WX    TMP DP  RH WIND       PRES   REMARKS
MILWAUKEE      MOSUNNY   60  48  64 NE8       30.01F
6HR MIN TEMP:  60; 6HR MAX TEMP:  64;

WAUKESHA       SUNNY     64  48  55 NE5       30.02S
MILWAUKEE/TIMM SUNNY     64  46  52 NE8       30.02F
RACINE         SUNNY     60  49  66 N9        30.02F
6HR MIN TEMP:  60; 6HR MAX TEMP:  66;

BURLINGTON     SUNNY     64  51  62 NE5       30.00F
KENOSHA        SUNNY     63  51  65 NE10      30.00F
6HR MIN TEMP:  63; 6HR MAX TEMP:  68;

FOND DU LAC    SUNNY     70  46  42 E6        30.01S
6HR MIN TEMP:  69; 6HR MAX TEMP:  74;

SHEBOYGAN      SUNNY     65  45  48 NE7       30.02S
6HR MIN TEMP:  65; 6HR MAX TEMP:  68;

WEST BEND      SUNNY     64  48  55 E6        30.02S
JUNEAU         SUNNY     69  46  44 E7        30.02S
$$

LSZ147-162-030100-
LAKE SUPERIOR

STATION/POSITION TIME  TEMP    WIND        PRES    WAVE
                       AIR SEA DIR/SP/G            HT/PER
                 (UTC) (F)     (DEG/KT/KT) (MB)    (FT/S)
W MID LAKE BUOY  2250   50 39  250/  6/ 12 1014.0F   0
DEVILS ISLAND    2300   69     230/  9/ 12 1013.6F
SAXON HARBOR     2300   77     260/  2/  6 1014.2F
$$

LMZ867-665-643>646-030100-
LAKE MICHIGAN

STATION/POSITION TIME  TEMP    WIND        PRES    WAVE
                       AIR SEA DIR/SP/G            HT/PER
                 (UTC) (F)     (DEG/KT/KT) (MB)    (FT/S)
CHAMBERS ISLAND  2300   69     100/  4/  6 1016.3F
S GREEN BAY BUOY 2230   70 70  120/  6/  8 1017.6
N MID LAKE BUOY  2250   58 52   CALM  /  2 1016.6F   0
NORTHPORT PIER   2300   61     140/  6/ 14 1016.3F
SISTER BAY       2229   69     160/  9/ 10   N/A
ALGOMA LAKESHORE 2310             CALM       N/A
KEWAUNEE LAKESHO 2300   62      CALM  /  1 1016.3F
SHEBOYGAN LAKESH 2300   59      10/  5/  6 1017.0F
PORT WASHINGTON  2300   61      40/  8/ 11 1017.3F
ATWATER BUOY     2300   58      10/  8/ 10 1017.9F
MILWAUKEE LAKESH 2300   58      30/ 10/ 11   N/A
KENOSHA   LAKESH 2300   59      30/ 15/ 18 1015.9F
$$

TC  - TEMPERATURE IN CELSIUS
VSB - VISIBILITY IN STATUTE MILES
WCI - WIND CHILL INDEX
HX  - HEAT INDEX



USA.gov is the U.S. government's official web portal to all federal, state and local government web resources and services.